Starlink 11622

operational
NORAD ID: 63187 Int'l Des: 2025-048 Owner: SPXS Country: US Constellation: starlink
LEOCIRCULAR

关于 Starlink 11622

正在加载描述...

实时位置

正在加载3D地球...

即将过境

高度历史

Altitude vs Time

uPlot chart will show altitude changes over time

两行轨道根数

1 63187U 25048E 25303.64182262 .00311030 00000-0 23411-2 0 9999
2 63187 42.9981 24.1774 0001479 305.8869 54.1861 15.70806371 38065
Epoch: Oct 30, 2025 • Age: 14 hours

当前状态

高度 359.5 km
速度 7.69 km/s
星下点 -21.26°S, 118.53°W
发射日期 Mar 13, 2025
运行时间 0.6 years
类型 internet

技术详情

分类 Payload
质量 960.00 kg
干质量 910.00 kg
总质量 960.00 kg
长度 0.30 m
直径 4.10 m
跨度 29.00 m
形状 Box + pan
制造商 SPXS
平台类型 Starlink V2MD
阶段状态 In Orbit
所有者/国家 SPXS/US

大型星座

Loading constellations...